Location: Cosy Dell
(34.2789°N, 117.4537°W)
Time: 12:18:43
(UTC+00:00)

Meteor 2-9 Rocket - Pass Details

Date: 14 July 2020
Orbit: 792 x 894 km, 81.3° (Epoch: 08 August)

Event Time Altitude Azimuth Distance (km) Brightness Sun altitude
Exits shadow 11:18:37 17° 187° (S) 1,924 5.6 -16.2°
Maximum altitude 11:22:48 89° 277° (W) 797 4.0 -15.6°
Drops below altitude 10° 11:28:09 10° 8° (N) 2,373 7.2 -14.7°
Sets 11:30:33 0° 9° (N) 3,315 8.1 -14.4°
